Terug naar catalogus

FALCON HEAVY R/B

ActiefVLEO
NORAD 61508·ROCKET BODY·🇺🇸 United States

Gelanceerd Oct 14, 2024 vanaf Cape Canaveral Space Force Station

Loading…

Volgende Passages (komende 24 uur)

TLE

VerouderdSource: Space-Track

Epoch: Oct 14, 2024, 16:13 UTC

1 61508U 24182B   24288.67632810  .00000840 -26562-5  00000-0 0  9993
2 61508  31.9400  67.0176 0018900  60.7600  70.5300 16.38814738    07

Volg FALCON HEAVY R/B in realtime met AllMySat

Download on the App Store